Date,TemperatureHighF,TemperatureAvgF,TemperatureLowF,DewpointHighF,DewpointAvgF,DewpointLowF,HumidityHigh,HumidityAvg,HumidityLow,PressureMaxIn,PressureMinIn,WindSpeedMaxMPH,WindSpeedAvgMPH,GustSpeedMaxMPH,PrecipitationSumIn
2013-1-1,34.0,17.9,12.0,29.0,15.5,10.0,94,90,73,0.00,40.00,0,0,2,0.00
2013-1-2,16.0,11.1,6.0,12.0,7.8,2.0,91,87,84,0.00,40.00,0,0,0,0.00
2013-1-3,15.0,12.0,9.0,12.0,8.9,5.0,88,87,85,0.00,40.00,0,0,0,0.00
2013-1-4,33.0,20.5,10.0,30.0,18.4,7.0,97,91,86,0.00,40.00,0,0,2,0.00
2013-1-5,24.0,19.6,16.0,21.0,17.4,13.0,94,91,86,0.00,40.00,0,0,2,0.00
2013-1-6,34.0,27.3,21.0,25.0,21.4,17.0,95,80,56,0.00,40.00,5,2,13,0.00
2013-1-7,39.0,31.2,24.0,34.0,26.7,15.0,97,84,49,0.00,40.00,12,6,54,0.01
2013-1-8,38.0,31.7,24.0,34.0,27.5,15.0,98,85,49,0.00,40.00,9,4,27,0.01
2013-1-9,38.0,33.6,22.0,31.0,21.9,8.0,75,62,50,0.00,40.00,12,7,30,0.00
2013-1-10,32.0,18.8,13.0,13.0,10.6,8.0,92,71,45,0.00,40.00,3,1,9,0.00
2013-1-11,29.0,14.9,9.0,11.0,8.1,5.0,92,75,46,0.00,40.00,2,1,6,0.00
2013-1-12,27.0,11.8,7.0,11.0,5.6,0.0,89,77,47,0.00,40.00,3,0,6,0.00
2013-1-13,24.0,14.1,8.0,10.0,6.2,2.0,84,71,53,0.00,40.00,2,1,6,0.00
2013-1-14,32.0,21.6,17.0,21.0,15.4,9.0,95,77,62,0.00,40.00,3,1,8,0.00
2013-1-28,29.0,26.9,26.0,22.0,21.1,19.0,84,79,65,0.00,40.00,6,3,24,0.00
2013-1-29,42.0,32.1,27.0,28.0,24.4,20.0,89,74,55,0.00,40.00,4,2,15,0.04
2013-1-30,48.0,37.1,31.0,28.0,26.3,22.0,79,66,46,0.00,40.00,5,3,24,0.04
2013-1-31,40.0,35.5,30.0,29.0,27.2,23.0,83,71,60,0.00,40.00,5,2,20,0.00
2013-2-1,47.0,33.3,27.0,27.0,25.0,22.0,95,73,46,0.00,40.00,3,1,7,0.00
2013-2-2,51.0,33.4,29.0,29.0,20.6,16.0,80,60,38,0.00,40.00,2,1,8,0.00
2013-2-3,37.0,32.4,28.0,27.0,25.2,18.0,88,75,47,0.00,40.00,5,2,14,0.00
2013-2-4,44.0,35.7,28.0,31.0,25.8,23.0,93,68,50,0.00,40.00,6,2,14,0.00
2013-2-5,40.0,31.5,27.0,29.0,25.1,21.0,93,78,54,0.00,40.00,6,3,18,0.00
2013-2-6,37.0,30.6,27.0,27.0,23.8,19.0,95,77,52,0.00,40.00,6,3,23,0.01
2013-2-7,39.0,27.2,21.0,26.0,20.8,15.0,96,78,46,0.00,40.00,4,2,13,0.01
2013-2-8,38.0,23.9,19.0,17.0,13.5,9.0,82,65,33,0.00,40.00,3,1,8,0.01
2013-2-9,43.0,28.4,21.0,25.0,20.0,14.0,90,72,46,0.00,40.00,3,1,7,0.01
2013-2-10,47.0,31.4,24.0,23.0,19.5,15.0,85,63,38,0.00,40.00,3,1,7,0.00
2013-2-11,42.0,30.2,24.0,27.0,22.4,15.0,87,73,52,0.00,40.00,4,2,10,0.00
2013-2-12,42.0,34.8,27.0,29.0,24.0,15.0,81,65,52,0.00,40.00,9,4,36,0.00
2013-2-13,44.0,34.8,24.0,28.0,22.1,19.0,82,61,43,0.00,40.00,10,4,36,0.00
2013-2-14,46.0,33.3,23.0,29.0,25.2,19.0,95,73,51,0.00,40.00,3,1,7,0.00
2013-2-15,51.0,34.3,28.0,32.0,29.1,27.0,97,84,48,0.00,40.00,2,1,5,0.01
2013-2-16,43.0,32.9,28.0,32.0,25.4,18.0,97,76,43,0.00,40.00,8,4,27,0.01
2013-2-17,36.0,28.2,20.0,19.0,17.3,14.0,86,65,50,0.00,40.00,5,2,15,0.00
2013-2-18,35.0,24.0,20.0,23.0,19.1,16.0,95,82,61,0.00,40.00,2,1,8,0.00
2013-2-19,37.0,24.2,20.0,22.0,19.2,17.0,94,83,46,0.00,40.00,3,1,10,0.01
2013-2-20,38.0,23.4,16.0,20.0,16.9,13.0,94,78,46,0.00,40.00,4,1,13,0.01
2013-2-21,35.0,27.8,21.0,22.0,18.9,16.0,80,69,54,0.00,40.00,7,4,29,0.00
2013-2-22,36.0,29.8,23.0,30.0,23.5,14.0,88,77,63,0.00,40.00,9,5,43,0.09
2013-2-23,40.0,27.4,21.0,19.0,15.6,14.0,84,62,42,0.00,40.00,9,4,37,0.01
2013-2-24,34.0,27.7,19.0,25.0,21.0,16.0,86,76,65,0.00,40.00,2,1,9,0.01
2013-2-25,31.0,27.0,22.0,24.0,19.8,15.0,90,75,53,0.00,40.00,10,4,39,0.04
2013-2-26,40.0,29.2,20.0,20.0,16.1,9.0,76,59,42,0.00,40.00,3,2,11,0.01
2013-2-27,43.0,31.9,25.0,26.0,21.8,17.0,86,67,43,0.00,40.00,5,3,25,0.01
2013-2-28,38.0,33.0,28.0,36.0,29.8,21.0,98,88,67,0.00,40.00,5,2,21,0.34
2013-3-1,49.0,42.0,38.0,36.0,33.3,28.0,89,72,54,0.00,40.00,10,6,41,0.02
2013-3-2,51.0,38.7,28.0,30.0,26.5,20.0,77,62,31,0.00,40.00,7,4,28,0.00
2013-3-3,36.0,26.8,21.0,21.0,13.4,9.0,79,58,35,0.00,40.00,6,3,19,0.01
2013-3-4,36.0,25.0,18.0,19.0,14.4,11.0,81,64,45,0.00,40.00,4,2,13,0.01
2013-3-5,28.0,23.6,20.0,24.0,18.0,15.0,94,79,59,0.00,40.00,3,1,8,0.00
2013-3-6,32.0,27.5,23.0,29.0,24.8,22.0,96,89,81,0.00,40.00,6,1,19,0.00
2013-3-7,37.0,30.5,24.0,30.0,25.1,23.0,96,81,68,0.00,40.00,6,3,21,0.18
2013-3-8,45.0,29.8,21.0,32.0,25.0,20.0,97,83,57,0.00,40.00,3,1,7,0.19
2013-3-9,51.0,33.7,20.0,22.0,17.7,14.0,90,56,26,0.00,40.00,4,1,9,0.13
2013-3-10,48.0,36.9,28.0,29.0,22.0,11.0,94,56,39,0.00,40.00,4,1,11,0.05
2013-3-11,47.0,34.9,27.0,27.0,21.3,5.0,94,60,33,0.00,40.00,4,2,10,0.00
2013-3-12,49.0,40.0,31.0,35.0,32.8,26.0,88,76,55,0.00,40.00,8,4,26,0.01
2013-3-13,51.0,43.9,39.0,38.0,35.0,32.0,82,71,54,0.00,40.00,7,4,24,0.01
2013-3-14,55.0,44.8,38.0,38.0,33.4,26.0,80,65,37,0.00,40.00,8,3,29,0.00
2013-3-15,50.0,41.1,37.0,32.0,30.1,28.0,77,66,45,0.00,40.00,8,4,29,0.00
2013-3-16,42.0,34.2,25.0,31.0,24.6,15.0,79,68,48,0.00,40.00,8,5,35,0.02
2013-3-17,36.0,28.3,24.0,18.0,14.5,12.0,74,57,39,0.00,40.00,8,5,31,0.02
2013-3-18,39.0,28.7,21.0,19.0,15.6,12.0,80,59,34,0.00,40.00,11,6,37,0.00
2013-3-19,36.0,25.7,20.0,25.0,16.7,6.0,94,70,44,0.00,40.00,4,1,11,0.00
2013-3-20,42.0,32.9,23.0,34.0,28.3,11.0,96,84,58,0.00,40.00,10,6,44,0.57
2013-3-21,36.0,27.5,21.0,20.0,13.5,11.0,79,57,38,0.00,40.00,9,5,31,0.02
2013-3-22,33.0,22.1,16.0,19.0,12.1,6.0,82,66,47,0.00,40.00,3,2,9,0.02
2013-3-23,34.0,22.9,14.0,18.0,13.1,10.0,86,67,50,0.00,40.00,4,1,11,0.05
2013-3-24,39.0,25.2,16.0,18.0,14.1,12.0,85,65,37,0.00,40.00,4,2,14,0.03
2013-3-25,42.0,28.0,20.0,19.0,14.5,11.0,74,59,35,0.00,40.00,5,2,11,0.00
2013-3-26,51.0,35.0,24.0,27.0,21.1,17.0,79,59,36,0.00,40.00,4,2,10,0.00
2013-3-27,42.0,36.6,34.0,33.0,27.4,25.0,77,69,58,0.00,40.00,3,1,8,0.00
2013-3-28,50.0,42.0,37.0,34.0,31.0,26.0,76,65,53,0.00,40.00,3,2,8,0.01
2013-3-29,55.0,39.0,32.0,31.0,27.4,23.0,89,66,34,0.00,40.00,4,1,9,0.00
2013-3-30,57.0,42.5,34.0,34.0,28.9,-99.9,82,63,40,0.00,40.00,4,2,10,0.00
2013-3-31,60.0,45.9,37.0,34.0,31.7,28.0,84,61,31,0.00,40.00,4,2,13,0.00
2013-4-1,65.0,49.4,40.0,35.0,31.7,28.0,75,53,30,0.00,40.00,4,1,11,0.00
2013-4-2,59.0,45.2,33.0,36.0,33.1,28.0,88,65,40,0.00,40.00,4,2,15,0.00
2013-4-3,57.0,41.9,32.0,33.0,28.8,24.0,90,63,29,0.00,40.00,4,2,15,0.00
2013-4-4,43.0,41.5,40.0,41.0,35.8,28.0,95,81,60,0.00,40.00,4,2,15,0.62
2013-4-5,45.0,39.4,36.0,38.0,35.0,32.0,94,84,70,0.00,40.00,6,4,25,0.20
2013-4-6,41.0,35.9,31.0,33.0,28.6,24.0,94,75,55,0.00,40.00,7,4,21,0.09
2013-4-7,42.0,32.5,27.0,31.0,26.6,21.0,96,80,61,0.00,40.00,9,3,28,0.39
2013-4-8,43.0,33.1,26.0,32.0,27.1,21.0,94,79,57,0.00,40.00,4,2,9,0.01
2013-4-9,49.0,35.7,27.0,37.0,28.9,24.0,94,77,44,0.00,40.00,4,2,10,0.01
2013-4-10,46.0,41.5,34.0,40.0,34.0,23.0,89,75,55,0.00,40.00,8,4,40,0.11
2013-4-11,45.0,35.1,28.0,27.0,22.9,16.0,74,61,48,0.00,40.00,5,4,19,0.08
2013-4-12,41.0,31.3,26.0,32.0,22.9,15.0,97,72,52,0.00,40.00,4,1,30,0.05
2013-4-13,35.0,29.5,24.0,25.0,18.9,13.0,75,64,57,0.00,40.00,8,5,48,0.02
2013-4-14,39.0,27.5,22.0,26.0,20.0,14.0,94,75,39,0.00,40.00,4,2,9,0.00
2013-4-15,37.0,28.9,25.0,29.0,25.5,23.0,96,87,64,0.00,40.00,3,2,10,0.41
2013-4-16,40.0,30.0,24.0,24.0,19.2,13.0,94,68,32,0.00,40.00,5,2,16,0.09
2013-4-17,44.0,31.6,23.0,24.0,20.0,14.0,79,64,39,0.00,40.00,3,1,10,0.08
2013-4-18,49.0,38.3,29.0,34.0,29.0,23.0,82,69,54,0.00,40.00,7,2,25,0.00
2013-4-19,50.0,41.9,36.0,35.0,32.5,27.0,87,70,54,0.00,40.00,7,4,25,0.00
2013-4-20,50.0,40.2,34.0,31.0,28.0,26.0,78,63,44,0.00,40.00,6,4,22,0.00
2013-4-21,46.0,33.7,28.0,30.0,25.9,23.0,91,75,41,0.00,40.00,6,2,23,0.08
2013-4-22,46.0,32.9,25.0,25.0,14.9,3.0,90,53,17,0.00,40.00,4,2,10,0.07
2013-4-23,47.0,35.9,29.0,24.0,18.1,12.0,66,50,26,0.00,40.00,4,2,12,0.04
2013-4-24,59.0,44.0,32.0,27.0,22.2,16.0,71,46,19,0.00,40.00,5,3,14,0.00
2013-4-25,63.0,48.5,36.0,34.0,29.2,19.0,69,48,34,0.00,40.00,5,3,15,0.00
2013-4-26,65.0,52.3,41.0,33.0,26.7,16.0,72,42,19,0.00,40.00,6,3,18,0.00
2013-4-27,51.0,45.9,40.0,33.0,25.8,13.0,72,48,25,0.00,40.00,11,6,49,0.00
2013-4-28,50.0,40.7,35.0,31.0,26.6,24.0,79,58,38,0.00,40.00,10,5,29,0.00
2013-4-29,41.0,35.1,26.0,32.0,24.0,18.0,87,66,42,0.00,40.00,11,6,35,0.07
2013-4-30,43.0,30.9,23.0,23.0,16.0,10.0,78,56,25,0.00,40.00,6,2,16,0.01
2013-5-1,50.0,35.6,25.0,22.0,17.8,14.0,67,50,29,0.00,40.00,5,2,13,0.00
2013-5-2,58.0,44.6,35.0,33.0,23.6,18.0,52,44,31,0.00,40.00,5,2,12,0.00
2013-5-3,57.0,44.5,38.0,29.0,27.2,25.0,68,52,30,0.00,40.00,4,2,13,0.00
2013-5-9,77.0,65.3,57.0,45.0,40.7,34.0,62,43,21,0.00,40.00,6,4,15,0.00
2013-5-10,85.0,66.7,52.0,44.0,35.5,-99.9,73,39,15,0.00,40.00,7,4,11,0.03
2013-5-11,78.0,65.4,56.0,45.0,40.1,-99.9,56,42,25,0.00,40.00,6,4,12,0.03
2013-5-12,63.0,58.9,52.0,50.0,44.5,42.0,77,59,47,0.00,40.00,6,5,23,0.00
2013-5-13,55.0,49.4,38.0,46.0,40.9,29.0,91,73,59,0.00,40.00,7,4,28,0.20
2013-5-14,56.0,44.7,35.0,35.0,32.1,30.0,90,64,40,0.00,40.00,9,4,17,0.09
2013-5-15,62.0,49.1,38.0,41.0,34.8,31.0,86,60,32,0.00,40.00,5,3,14,0.00
2013-5-16,62.0,45.3,42.0,47.0,22.2,-99.9,88,73,44,0.00,40.00,6,3,13,0.14
2013-5-17,57.0,48.8,43.0,45.0,39.2,-99.9,94,75,58,0.00,40.00,7,4,12,0.01
2013-5-18,59.0,48.7,42.0,38.0,36.2,34.0,77,63,45,0.00,40.00,11,6,18,0.01
2013-5-19,62.0,50.0,42.0,38.0,36.1,33.0,73,60,41,0.00,40.00,10,6,18,0.00
2013-5-20,71.0,55.4,40.0,41.0,37.3,33.0,85,55,25,0.00,40.00,5,3,13,0.00
2013-5-21,54.0,45.1,39.0,44.0,38.8,32.0,98,80,56,0.00,40.00,6,3,14,0.36
2013-5-22,46.0,39.2,35.0,40.0,34.8,31.0,97,85,69,0.00,40.00,5,3,12,0.34
2013-5-23,48.0,40.7,35.0,43.0,37.4,33.0,98,89,70,0.00,40.00,3,2,9,0.22
2013-5-24,57.0,43.5,37.0,44.0,38.2,35.0,98,83,53,0.00,40.00,6,2,12,0.33
2013-5-25,42.0,41.4,41.0,35.0,34.4,34.0,77,77,76,0.00,40.00,4,3,11,0.23